Location: Buffign�court
(47.8126°N, 6.0176°E)
Time: 02:35:55
(UTC+00:00)

Cosmos 1758 - Pass Details

Date: 16 June 2021
Orbit: 539 x 561 km, 82.5° (Epoch: 04 August)

Event Time Altitude Azimuth Distance (km) Brightness Sun altitude
Rises 20:38:16 0° 348° (NNW) 2,720 8.1 -8.3°
Reaches altitude 10° 20:40:27 10° 345° (NNW) 1,819 7.1 -8.6°
Maximum altitude 20:44:25 67° 263° (W) 592 3.6 -9.0°
Drops below altitude 10° 20:48:20 10° 182° (S) 1,797 5.5 -9.4°
Enters shadow 20:48:59 - 181° (S) 2,065 5.8 -9.5°
